Weather in Gulsehir

Turkey     38°44′25″N   34°36′58″E
temp.,
°C
wind,
m/s
gust,
m/s
humid.,
%
clouds,
%
prec.,
mm/h
press.,
hPa
HPBL,
m
4 march, thu
thu400:00+1ne35680 0.0 1025136
03:000n23760 0.0 102564
06:00−1n23780 0.0 102688
09:000nne12680 0.0 1026442
12:00+4n12500 0.0 1024805
15:00+7n23340 0.0 10211103
18:00+7n22400 0.0 1020272
21:00+3ne00540 0.0 102322
5 march, fri
fri500:00+1ssw12540 0.0 102322
03:00+1ssw12530 0.0 102322
06:00+1s12540 0.0 102322
09:00+4s22460 0.0 1024157
12:00+9sw23350 0.0 1022778
15:00+12wsw22260 0.0 1019961
18:00+10sw22340 0.0 102035
21:00+5ssw12400 0.0 102222
6 march, sat
sat600:00+4s22390 0.0 102322
03:00+4se23390 0.0 102322
06:00+3se23330 0.0 102322
09:00+8se222933 0.0 102365
12:00+12sw132073 0.0 1020697
15:00+14wsw672287 0.0 10171340
18:00+10wnw81047100 0.0 1019690
21:00+6e1178100 0.0 102022
7 march, sun
sun700:00+5se127867 0.0 102122
03:00+4nw237849 0.0 102033
06:00+4wnw237787 0.0 102146
09:00+4wnw238393 0.0 1022316
12:00+7nw127097 0.0 1021712
15:00+7wsw337795 0.2 1018479
18:00+7wnw126786 0.2 1017653
21:00+5n237875 0.6 101998
8 march, mon
mon800:00+3nne019067 0.1 101922
03:00+2se119357 0.1 101722
06:00+2sse129042 0.0 101723
09:00+4nw348549 0.1 1017350
12:00+3wsw249298 2.1 1016302
15:00+7wnw456097 2.9 10151178
18:00+7w235749 0.1 1015456
21:00+3ssw226824 0.1 101822